Change the Weather History Date:

Monday, November 5, 2012

  Actual Average Record
Temperature  
Mean Temperature 68 °F -  
Max Temperature 84 °F 69 °F 86 °F (1941)
Min Temperature 51 °F 48 °F 32 °F (1935)
Cooling Degree Days 2    
Growing Degree Days 18 (Base 50)    
Moisture  
Dew Point 51 °F    
Average Humidity 62    
Maximum Humidity 87    
Minimum Humidity 26    
Precipitation  
Precipitation 0.00 in - - ()
Sea Level Pressure  
Sea Level Pressure 30.12 in    
Wind  
Wind Speed 4 mph (NNE)    
Max Wind Speed 8 mph    
Max Gust Speed -    
Visibility 10 miles    
Events      
Averages and records for this station are not official NWS values.
T = Trace of Precipitation, MM = Missing Value Source: NWS Daily Summary

Daily Weather History Graph

Daily Weather History Graph

Search for Another Location

Airport or City:

Trip Planner

Search our weather history database for the weather conditions in past years. The results will help you decide how hot, cold, wet, or windy it might be!

Date:

Astronomy

Nov. 05, 2012 Rise Set
Actual Time 6:43 AM PST 5:01 PM PST
Civil Twilight 6:15 AM PST 5:29 PM PST
Nautical Twilight 5:42 AM PST 6:01 PM PST
Astronomical Twilight 5:11 AM PST 6:33 PM PST
Moon 10:44 PM PST (11/5) 12:06 PM PST (11/5)
Length of Visible Light 11h 14m
Length of Day
10h 17m
Waning Gibbous, 62% of the Moon is Illuminated
Nov 5
Waning Gibbous
Nov 6
Last Quarter
Nov 13
New
Nov 20
First Quarter
Nov 28
Full

Hourly Weather History & Observations

Time (PST) Temp. Heat Index Dew Point Humidity Pressure Visibility Wind Dir Wind Speed Gust Speed Precip Events Conditions
12:54 AM 62.1 °F - 51.1 °F 67% 30.17 in 10.0 mi NNE 6.9 mph - N/A   Clear
1:54 AM 61.0 °F - 48.9 °F 64% 30.16 in 10.0 mi NW 8.1 mph - N/A   Clear
2:54 AM 59.0 °F - 48.9 °F 69% 30.16 in 10.0 mi NNE 4.6 mph - N/A   Clear
3:54 AM 55.9 °F - 48.9 °F 77% 30.15 in 10.0 mi Calm Calm - N/A   Clear
4:54 AM 60.1 °F - 48.0 °F 64% 30.16 in 10.0 mi North 3.5 mph - N/A   Clear
5:54 AM 52.0 °F - 46.9 °F 83% 30.17 in 10.0 mi NNE 3.5 mph - N/A   Clear
6:54 AM 51.1 °F - 46.9 °F 86% 30.18 in 10.0 mi NNW 3.5 mph - N/A   Clear
7:54 AM 57.0 °F - 50.0 °F 77% 30.20 in 10.0 mi Calm Calm - N/A   Clear
8:54 AM 63.0 °F - 52.0 °F 67% 30.19 in 10.0 mi Calm Calm - N/A   Clear
9:54 AM 69.1 °F - 51.1 °F 53% 30.18 in 10.0 mi Calm Calm - N/A   Clear
10:54 AM 73.9 °F - 51.1 °F 45% 30.16 in 10.0 mi Calm Calm - N/A   Clear
11:54 AM 79.0 °F - 50.0 °F 36% 30.13 in 10.0 mi Calm Calm - N/A   Clear
12:54 PM 84.9 °F - 46.0 °F 26% 30.09 in 10.0 mi NNE 6.9 mph - N/A   Clear
1:54 PM 82.9 °F - 52.0 °F 34% 30.07 in 10.0 mi SE 8.1 mph - N/A   Clear
2:54 PM 82.9 °F - 52.0 °F 34% 30.06 in 10.0 mi SSE 5.8 mph - N/A   Clear
3:54 PM 81.0 °F 80.4 °F 53.1 °F 38% 30.06 in 10.0 mi SSE 6.9 mph - N/A   Clear
4:54 PM 75.0 °F - 54.0 °F 48% 30.05 in 10.0 mi SE 5.8 mph - N/A   Clear
5:54 PM 69.1 °F - 55.0 °F 61% 30.06 in 10.0 mi Calm Calm - N/A   Clear
6:54 PM 66.9 °F - 55.0 °F 66% 30.06 in 10.0 mi Calm Calm - N/A   Clear
7:54 PM 62.1 °F - 54.0 °F 75% 30.07 in 10.0 mi Calm Calm - N/A   Clear
8:54 PM 57.9 °F - 53.1 °F 84% 30.08 in 10.0 mi Calm Calm - N/A   Clear
9:54 PM 55.9 °F - 52.0 °F 87% 30.08 in 10.0 mi Calm Calm - N/A   Clear
10:54 PM 55.0 °F - 51.1 °F 86% 30.08 in 10.0 mi WNW 5.8 mph - N/A   Clear
11:54 PM 55.0 °F - 50.0 °F 83% 30.08 in 10.0 mi NW 5.8 mph - N/A   Clear